TimeCDT,TemperatureF,Dew PointF,Humidity,Sea Level PressureIn,VisibilityMPH,Wind Direction,Wind SpeedMPH,Gust SpeedMPH,PrecipitationIn,Events,Conditions,WindDirDegrees,DateUTC
12:15 AM,44.8,34.9,68,30.37,10.0,East,4.6,-,N/A,,Clear,80,2013-05-25 05:15:00
12:35 AM,43.7,35.6,73,30.35,10.0,East,4.6,-,N/A,,Clear,90,2013-05-25 05:35:00
12:55 AM,43.7,36.5,76,30.34,10.0,East,3.5,-,N/A,,Clear,90,2013-05-25 05:55:00
1:15 AM,43.0,36.5,78,30.34,10.0,Calm,Calm,-,N/A,,Clear,0,2013-05-25 06:15:00
1:35 AM,42.4,37.6,83,30.33,10.0,East,5.8,-,N/A,,Clear,80,2013-05-25 06:35:00
1:55 AM,43.3,37.6,80,30.33,10.0,East,4.6,-,N/A,,Clear,80,2013-05-25 06:55:00
2:15 AM,43.7,36.3,75,30.32,10.0,East,6.9,-,N/A,,Clear,80,2013-05-25 07:15:00
2:35 AM,43.2,37.0,79,30.31,10.0,East,8.1,-,N/A,,Clear,80,2013-05-25 07:35:00
2:55 AM,43.7,36.5,76,30.31,10.0,ENE,5.8,-,N/A,,Clear,70,2013-05-25 07:55:00
3:15 AM,43.0,36.9,79,30.32,10.0,NE,3.5,-,N/A,,Clear,50,2013-05-25 08:15:00
3:35 AM,43.7,37.0,77,30.34,10.0,NE,4.6,-,N/A,,Clear,40,2013-05-25 08:35:00
3:55 AM,44.2,36.3,74,30.34,10.0,NE,8.1,-,N/A,,Clear,50,2013-05-25 08:55:00
4:15 AM,45.1,36.5,72,30.34,10.0,ENE,4.6,-,N/A,,Scattered Clouds,70,2013-05-25 09:15:00
4:35 AM,45.0,37.8,76,30.36,10.0,Calm,Calm,-,N/A,,Mostly Cloudy,0,2013-05-25 09:35:00
4:55 AM,45.0,37.2,74,30.36,10.0,East,4.6,-,N/A,,Scattered Clouds,80,2013-05-25 09:55:00
5:15 AM,45.1,36.9,73,30.36,10.0,Calm,Calm,-,N/A,,Mostly Cloudy,0,2013-05-25 10:15:00
5:35 AM,45.5,37.0,72,30.36,10.0,ENE,5.8,-,N/A,,Scattered Clouds,70,2013-05-25 10:35:00
5:55 AM,45.5,37.0,72,30.34,10.0,ENE,8.1,-,N/A,,Mostly Cloudy,70,2013-05-25 10:55:00
6:15 AM,45.7,36.3,70,30.34,10.0,East,8.1,-,N/A,,Overcast,80,2013-05-25 11:15:00
6:35 AM,46.4,36.0,67,30.36,10.0,ENE,6.9,-,N/A,Rain,Light Rain,60,2013-05-25 11:35:00
6:55 AM,46.4,36.0,67,30.36,10.0,East,9.2,-,N/A,,Overcast,80,2013-05-25 11:55:00
7:15 AM,47.3,36.0,65,30.38,10.0,Calm,Calm,-,N/A,,Overcast,0,2013-05-25 12:15:00
7:35 AM,47.7,37.0,67,30.40,10.0,WSW,6.9,-,N/A,,Overcast,240,2013-05-25 12:35:00
7:55 AM,47.8,38.7,70,30.39,10.0,WSW,4.6,-,N/A,,Overcast,250,2013-05-25 12:55:00
8:15 AM,48.6,38.8,69,30.39,10.0,WSW,4.6,-,N/A,,Overcast,250,2013-05-25 13:15:00
8:35 AM,49.1,39.2,69,30.40,10.0,West,4.6,-,N/A,,Overcast,270,2013-05-25 13:35:00
8:55 AM,49.8,38.1,64,30.40,10.0,Calm,Calm,-,N/A,,Overcast,0,2013-05-25 13:55:00
9:15 AM,50.7,37.4,60,30.40,10.0,Calm,Calm,-,N/A,,Overcast,0,2013-05-25 14:15:00
9:35 AM,51.1,36.3,57,30.40,10.0,Calm,Calm,-,N/A,,Overcast,0,2013-05-25 14:35:00
9:55 AM,51.8,37.2,58,30.39,10.0,Calm,Calm,-,N/A,,Mostly Cloudy,0,2013-05-25 14:55:00
10:15 AM,51.6,37.4,58,30.38,10.0,Calm,Calm,-,N/A,,Overcast,0,2013-05-25 15:15:00
10:35 AM,52.0,39.0,61,30.39,10.0,SSW,3.5,-,N/A,,Overcast,200,2013-05-25 15:35:00
10:55 AM,52.5,37.2,56,30.38,10.0,Calm,Calm,-,N/A,,Overcast,0,2013-05-25 15:55:00
11:15 AM,52.3,36.9,56,30.39,10.0,Calm,Calm,-,N/A,,Overcast,0,2013-05-25 16:15:00
11:35 AM,52.9,38.1,57,30.40,10.0,Calm,Calm,-,N/A,,Overcast,0,2013-05-25 16:35:00
11:55 AM,53.1,38.3,57,30.40,10.0,SSE,3.5,-,N/A,,Overcast,160,2013-05-25 16:55:00
12:15 PM,53.1,37.8,56,30.39,10.0,Calm,Calm,-,N/A,,Overcast,0,2013-05-25 17:15:00
12:35 PM,53.6,38.3,56,30.39,10.0,Calm,Calm,-,N/A,,Overcast,0,2013-05-25 17:35:00
12:55 PM,54.5,39.0,56,30.37,10.0,ESE,3.5,-,N/A,,Overcast,110,2013-05-25 17:55:00
1:15 PM,55.2,38.3,53,30.34,10.0,ESE,5.8,-,N/A,,Overcast,120,2013-05-25 18:15:00
1:35 PM,55.6,38.3,52,30.33,10.0,East,8.1,-,N/A,,Overcast,100,2013-05-25 18:35:00
1:55 PM,56.8,38.7,51,30.33,10.0,ESE,8.1,-,N/A,,Overcast,110,2013-05-25 18:55:00
2:15 PM,56.8,37.4,48,30.33,10.0,East,6.9,-,N/A,,Overcast,90,2013-05-25 19:15:00
2:35 PM,57.2,37.9,49,30.33,10.0,East,8.1,-,N/A,,Overcast,100,2013-05-25 19:35:00
2:55 PM,57.6,38.3,49,30.31,10.0,ESE,8.1,-,N/A,,Overcast,120,2013-05-25 19:55:00
3:15 PM,57.2,37.4,48,30.30,10.0,ESE,9.2,-,N/A,,Overcast,120,2013-05-25 20:15:00
3:35 PM,57.7,39.9,51,30.29,10.0,East,8.1,-,N/A,,Overcast,100,2013-05-25 20:35:00
3:55 PM,57.7,39.9,51,30.29,10.0,ENE,10.4,-,N/A,,Overcast,70,2013-05-25 20:55:00
4:15 PM,57.2,40.1,53,30.30,10.0,East,6.9,-,N/A,,Overcast,80,2013-05-25 21:15:00
4:35 PM,55.9,43.7,63,30.31,10.0,ENE,9.2,-,N/A,Rain,Light Rain,60,2013-05-25 21:35:00
4:55 PM,55.4,43.2,63,30.32,10.0,ENE,8.1,-,N/A,Rain,Light Rain,70,2013-05-25 21:55:00
5:15 PM,55.4,44.2,66,30.32,10.0,East,6.9,-,N/A,,Light Drizzle,80,2013-05-25 22:15:00
5:35 PM,54.5,46.2,74,30.31,10.0,ENE,6.9,-,N/A,Rain,Light Rain,70,2013-05-25 22:35:00
5:55 PM,54.5,44.8,70,30.31,10.0,ENE,6.9,-,N/A,,Light Drizzle,70,2013-05-25 22:55:00
6:15 PM,54.5,44.2,68,30.31,10.0,East,6.9,-,N/A,,Overcast,80,2013-05-25 23:15:00
6:35 PM,54.5,44.6,69,30.30,10.0,East,6.9,-,N/A,,Overcast,100,2013-05-25 23:35:00
6:55 PM,54.5,44.1,68,30.30,10.0,ESE,3.5,-,N/A,,Overcast,110,2013-05-25 23:55:00
7:15 PM,54.3,44.2,69,30.31,10.0,East,3.5,-,N/A,,Overcast,80,2013-05-26 00:15:00
7:35 PM,53.8,45.1,73,30.32,10.0,North,3.5,-,N/A,,Overcast,10,2013-05-26 00:35:00
7:55 PM,53.1,44.6,73,30.32,10.0,ENE,3.5,-,N/A,,Overcast,60,2013-05-26 00:55:00
8:15 PM,53.1,43.9,71,30.30,10.0,East,4.6,-,N/A,,Overcast,100,2013-05-26 01:15:00
8:35 PM,52.9,43.0,69,30.30,10.0,ESE,4.6,-,N/A,,Overcast,110,2013-05-26 01:35:00
8:55 PM,52.5,43.7,72,30.31,10.0,ESE,3.5,-,N/A,,Overcast,110,2013-05-26 01:55:00
9:15 PM,52.5,43.7,72,30.32,10.0,Calm,Calm,-,N/A,,Overcast,0,2013-05-26 02:15:00
9:35 PM,52.0,43.9,74,30.32,10.0,Calm,Calm,-,N/A,,Overcast,0,2013-05-26 02:35:00
9:55 PM,52.0,43.9,74,30.32,10.0,SE,3.5,-,N/A,,Overcast,130,2013-05-26 02:55:00
10:15 PM,50.5,41.9,72,30.32,10.0,East,4.6,-,N/A,,Scattered Clouds,100,2013-05-26 03:15:00
10:35 PM,49.3,42.4,77,30.32,10.0,ESE,3.5,-,N/A,,Scattered Clouds,110,2013-05-26 03:35:00
10:55 PM,50.0,42.8,76,30.32,10.0,East,3.5,-,N/A,,Mostly Cloudy,80,2013-05-26 03:55:00
11:15 PM,47.8,42.3,81,30.32,10.0,ENE,6.9,-,N/A,,Scattered Clouds,70,2013-05-26 04:15:00
11:35 PM,48.0,41.9,79,30.31,10.0,ENE,5.8,-,N/A,,Mostly Cloudy,60,2013-05-26 04:35:00
11:55 PM,49.1,41.7,76,30.31,10.0,East,9.2,-,N/A,,Overcast,80,2013-05-26 04:55:00